Location: Unspecified
(0.0000°N, 0.0000°E)
Time: 14:08:14
(UTC+00:00)

THORAD DELTA 1 DEB - Pass Details

Date: 14 February 2026
Orbit: 1442 x 1568 km, 101.4° (Epoch: 22 February)

Event Time Altitude Azimuth Distance (km) Brightness Sun altitude
Exits shadow 19:12:33 12° 106° (ESE) 3,608 ? -14.2°
Maximum altitude 19:12:50 12° 108° (ESE) 3,607 ? -14.3°
Drops below altitude 10° 19:15:43 10° 127° (SE) 3,759 ? -15.0°
Sets 19:21:13 0° 155° (SSE) 4,733 ? -16.3°
